Location: Fort Wayne
(41.1310°N, 85.1290°W)
Time: 02:20:04
(UTC-05:00)

ISS - Visible Passes

Search period start: 02 March 2015 00:00
Search period end: 12 March 2015 01:00
Orbit: 397 x 407 km, 51.6° (Epoch: 02 March)

Date Brightness Start Highest point End Pass type
(mag) Time Alt. Az. Time Alt. Az. Time Alt. Az.
08 Mar -0.4 07:20:36 10° S 07:22:35 16° SE 07:24:39 10° E visible
10 Mar -1.9 07:09:27 10° SSW 07:12:26 36° SE 07:15:27 10° ENE visible
11 Mar -0.9 06:17:48 14° SSE 06:19:21 18° SE 06:21:43 10° E visible
